Location: Ar Ranvel
(48.3000°N, 4.8833°W)
Time: 09:06:44
(UTC+00:00)

ATLAS 3B R/B - Pass Details

Date: 16 June 2021
Orbit: 1003 x 1191 km, 63.8° (Epoch: 21 July)

Event Time Altitude Azimuth Distance (km) Brightness Sun altitude
Exits shadow 23:05:06 - 220° (SW) 3,726 5.2 -16.4°
Rises 23:05:06 0° 220° (SW) 3,722 5.2 -16.4°
Reaches altitude 10° 23:07:39 10° 221° (SW) 2,783 4.6 -16.5°
Maximum altitude 23:14:12 85° 309° (NW) 1,039 2.6 -16.8°
Drops below altitude 10° 23:21:02 10° 40° (NE) 2,893 5.4 -17.1°
Sets 23:23:44 0° 41° (NE) 3,877 6.1 -17.2°
